Accueil
METAR-TAF:

METAR-TAF

Aéroports :

Laval, France

Aéroport de Laval - Entrammes

latitude: 48-01-56N, longitude: 000-44-34W, altitude: 101 m

Observation

Le bulletin a été fait il y a 34 minutes, à 06:00 UTC
Vent 3 kt de sud
Température 13°C
Humidité 88%
Pression 1013 hPa
Visibilité: 9000 m

METAR: LFOV 220600Z AUTO 18003KT 9000 NSC 13/11 Q1013

Heure: 08:34 (06:34 UTC)


TAF: absent

Observations et prévisions météorologiques de plus de 4000 aéroports (messages METAR et TAF).

Les stations disponibles sont représentées par des disques jaunes et rouges sur la carte.

Passer la souris dessus pour voir le nom de la station.

Cliquer dessus pour voir les observations et prévisions météorologiques.

Pour changer de carte: cliquez sur les boutons verts avec une croix noire pour zoomer, sur le bouton vert avec un tiret pour effectuer un zoom arrière, ou sur les flèches vertes pour les cartes adjacentes.


METAR-TAF: